CDT,Max TemperatureF,Mean TemperatureF,Min TemperatureF,Max Dew PointF,MeanDew PointF,Min DewpointF,Max Humidity, Mean Humidity, Min Humidity, Max Sea Level PressureIn, Mean Sea Level PressureIn, Min Sea Level PressureIn, Max VisibilityMiles, Mean VisibilityMiles, Min VisibilityMiles, Max Wind SpeedMPH, Mean Wind SpeedMPH, Max Gust SpeedMPH,PrecipitationIn, CloudCover, Events, WindDirDegrees
2013-7-1,86,76,65,66,64,63,93,71,48,29.96,29.91,29.86,10,10,9,13,4,16,0.00,1,,350
2013-7-2,88,77,66,66,63,59,93,67,40,30.04,30.00,29.95,10,10,9,10,2,17,0.00,1,,15
2013-7-3,89,76,63,65,63,61,100,70,40,30.08,30.03,29.98,10,6,1,12,4,15,0.00,0,,53
2013-7-4,90,77,63,66,62,58,87,61,34,30.04,30.00,29.95,10,9,6,14,4,18,0.00,0,,34
2013-7-5,92,77,62,71,63,56,100,65,30,30.04,29.99,29.94,10,6,0,12,3,16,0.00,0,Fog,72
2013-7-6,90,79,67,71,69,66,97,74,50,30.04,30.00,29.94,10,7,0,12,3,18,0.00,3,Fog,108
2013-7-7,93,82,71,73,72,70,94,73,52,30.08,30.04,29.99,10,10,2,18,3,25,0.00,3,,148
2013-7-8,92,83,73,73,72,68,100,74,47,30.16,30.11,30.06,10,9,2,10,4,14,0.00,3,,202
2013-7-9,94,84,73,75,72,70,94,70,46,30.18,30.11,30.04,10,10,8,14,5,18,0.00,2,,207
2013-7-10,96,86,76,75,74,71,91,69,46,30.10,30.03,29.94,10,10,10,13,5,18,0.00,2,,219
2013-7-11,95,84,72,77,74,70,93,73,52,29.99,29.95,29.90,10,10,6,17,4,24,T,2,,248
2013-7-12,94,82,69,74,68,62,100,69,38,29.99,29.95,29.90,10,7,0,15,5,18,0.00,0,Fog,30
2013-7-13,92,79,65,67,63,60,87,63,38,30.00,29.96,29.91,10,10,6,13,5,17,0.00,0,,51
2013-7-14,91,78,64,71,67,63,93,67,41,30.02,29.97,29.93,10,10,8,22,2,30,T,1,,91
2013-7-15,93,81,68,76,71,66,97,71,44,30.14,30.08,30.01,10,10,5,23,4,36,0.04,2,Rain-Thunderstorm,88
2013-7-16,91,82,72,75,72,70,93,75,56,30.22,30.16,30.12,10,10,8,14,5,20,0.00,3,,73
2013-7-17,96,85,73,73,71,68,93,68,42,30.26,30.20,30.14,10,10,9,12,4,16,0.00,0,,71
2013-7-18,95,83,71,75,72,70,100,73,46,30.17,30.11,30.03,10,9,1,24,2,36,0.17,2,Rain,22
2013-7-19,92,81,70,72,70,69,100,76,52,30.10,30.04,29.95,10,6,0,17,1,25,0.01,4,Fog,106
2013-7-20,93,81,69,73,70,67,100,74,47,30.00,29.96,29.88,10,10,5,13,3,17,0.00,0,,174
2013-7-21,93,82,71,74,71,69,94,72,49,30.00,29.97,29.92,10,9,5,23,6,31,T,1,Rain,189
2013-7-22,95,85,75,76,73,71,94,70,46,30.02,29.98,29.92,10,10,10,20,9,24,0.00,3,,218
2013-7-23,95,84,73,75,73,69,91,70,49,30.02,29.96,29.88,10,9,4,33,9,41,0.18,2,Rain-Thunderstorm,240
2013-7-24,91,82,72,75,72,70,93,73,52,29.96,29.93,29.88,10,10,6,16,6,23,0.03,3,Rain,250
2013-7-25,93,82,70,72,69,67,93,67,41,30.07,30.02,29.95,10,10,7,13,5,17,0.00,0,,54
2013-7-26,89,78,67,73,69,64,100,76,51,30.09,30.01,29.92,10,9,1,21,3,28,0.29,2,Rain-Thunderstorm,95
2013-7-27,84,77,70,74,72,69,100,85,69,29.96,29.92,29.89,10,7,2,16,6,20,1.05,7,Rain-Thunderstorm,18
2013-7-28,91,79,66,72,68,64,100,75,50,30.02,29.98,29.94,10,5,0,10,3,14,0.00,1,Fog,52
2013-7-29,93,81,69,76,72,68,100,78,56,30.11,30.06,30.02,10,7,0,10,3,15,0.00,1,Fog,156
2013-7-30,95,84,73,74,70,63,94,65,36,30.15,30.08,30.03,10,9,5,14,5,17,0.00,0,,199
2013-7-31,95,85,74,73,69,64,93,66,39,30.10,30.03,29.94,10,10,6,13,5,16,T,0,,220